Weather History for KCFV - October, 2012

Change the Weather History Date:

Wednesday, October 3, 2012

  Actual Average Record
Temperature  
Mean Temperature 63 °F -  
Max Temperature 81 °F 73 °F - (-1)
Min Temperature 45 °F 49 °F - (-1)
Degree Days  
Heating Degree Days 2    
Growing Degree Days 13 (Base 50)    
Moisture  
Dew Point 47 °F    
Average Humidity 63    
Maximum Humidity 93    
Minimum Humidity 30    
Precipitation  
Precipitation 0.00 in - - ()
Sea Level Pressure  
Sea Level Pressure 29.95 in    
Wind  
Wind Speed 4 mph (South)    
Max Wind Speed 16 mph    
Max Gust Speed 23 mph    
Visibility 10 miles    
Events      
Averages and records for this station are not official NWS values.
T = Trace of Precipitation, MM = Missing Value Source: NWS Daily Summary

Daily Weather History Graph

Daily Weather History Graph

Search for Another Location

Airport or City:

Trip Planner

Search our weather history database for the weather conditions in past years. The results will help you decide how hot, cold, wet, or windy it might be!

Date:

Astronomy

Oct. 03, 2012 Rise Set
Actual Time 7:19 AM CDT 7:01 PM CDT
Civil Twilight 6:53 AM CDT 7:27 PM CDT
Nautical Twilight 6:23 AM CDT 7:57 PM CDT
Astronomical Twilight 5:53 AM CDT 8:28 PM CDT
Moon 9:00 PM CDT (10/3) 10:38 AM CDT (10/3)
Length of Visible Light 12h 33m
Length of Day
11h 42m
Waning Gibbous, 88% of the Moon is Illuminated
Oct 3
Waning Gibbous
Oct 8
Last Quarter
Oct 15
New
Oct 21
First Quarter
Oct 29
Full

Hourly Weather History & Observations

Time (CDT) Temp. Dew Point Humidity Pressure Visibility Wind Dir Wind Speed Gust Speed Precip Events Conditions
12:52 AM 50.0 °F 45.0 °F 83% 29.93 in 10.0 mi Calm Calm - N/A   Clear
1:52 AM 48.9 °F 45.0 °F 86% 29.94 in 10.0 mi Calm Calm - N/A   Clear
2:52 AM 48.9 °F 45.0 °F 86% 29.94 in 10.0 mi Calm Calm - N/A   Clear
3:52 AM 46.9 °F 44.1 °F 90% 29.94 in 10.0 mi Calm Calm - N/A   Clear
4:52 AM 46.9 °F 44.1 °F 90% 29.95 in 10.0 mi Calm Calm - N/A   Clear
5:52 AM 46.9 °F 44.1 °F 90% 29.95 in 10.0 mi Calm Calm - N/A   Clear
6:52 AM 46.0 °F 43.0 °F 89% 29.96 in 10.0 mi Calm Calm - N/A   Clear
7:52 AM 45.0 °F 43.0 °F 93% 29.97 in 10.0 mi Calm Calm - N/A   Clear
8:52 AM 54.0 °F 48.9 °F 83% 29.98 in 7.0 mi Calm Calm - N/A   Clear
9:52 AM 61.0 °F 51.1 °F 70% 29.99 in 10.0 mi South 4.6 mph - N/A   Clear
10:52 AM 68.0 °F 50.0 °F 52% 30.00 in 10.0 mi South 4.6 mph - N/A   Clear
11:52 AM 73.9 °F 50.0 °F 43% 29.99 in 10.0 mi South 9.2 mph - N/A   Clear
12:52 PM 78.1 °F 48.0 °F 35% 29.96 in 10.0 mi South 15.0 mph 20.7 mph N/A   Clear
1:52 PM 80.1 °F 46.9 °F 31% 29.93 in 10.0 mi South 16.1 mph 21.9 mph N/A   Clear
2:52 PM 81.0 °F 46.9 °F 30% 29.91 in 10.0 mi SSW 12.7 mph 23.0 mph N/A   Partly Cloudy
3:52 PM 80.1 °F 46.9 °F 31% 29.90 in 10.0 mi South 9.2 mph - N/A   Clear
4:52 PM 79.0 °F 48.9 °F 35% 29.90 in 10.0 mi South 13.8 mph - N/A   Clear
6:52 PM 73.9 °F 50.0 °F 43% 29.91 in 10.0 mi SSE 9.2 mph - N/A   Clear
7:52 PM 69.1 °F 50.0 °F 51% 29.94 in 10.0 mi SSE 5.8 mph - N/A   Clear
8:52 PM 66.0 °F 48.9 °F 54% 29.96 in 10.0 mi SSE 6.9 mph - N/A   Clear
9:52 PM 64.9 °F 48.0 °F 54% 29.96 in 10.0 mi SSE 6.9 mph - N/A   Clear
10:52 PM 64.9 °F 51.1 °F 61% 29.97 in 10.0 mi SSE 8.1 mph - N/A   Clear
11:52 PM 64.9 °F 52.0 °F 63% 29.97 in 10.0 mi South 8.1 mph - N/A   Clear